Roswell, NM

1:53 AM MDT on May 30, 2017 (GMT -0600)
Roswell Industrial

Weather History for KROW - March, 2014

Change the Weather History Date:

Monday, March 3, 2014

  Actual Average Record
Temperature  
Mean Temperature 33 °F 50 °F  
Max Temperature 44 °F 65 °F 86 °F (1967)
Min Temperature 22 °F 34 °F 9 °F (2002)
Degree Days  
Heating Degree Days 32 16  
Month to date heating degree days 62 48  
Since 1 July heating degree days 2765 2755  
Cooling Degree Days 0 0  
Month to date cooling degree days 0 0  
Year to date cooling degree days 0 0  
Moisture  
Dew Point 21 °F    
Average Humidity 65    
Maximum Humidity 81    
Minimum Humidity 49    
Precipitation  
Precipitation 0.00 in 0.02 in 0.29 in (1917)
Month to date precipitation 0.05 0.05  
Year to date precipitation 0.07 0.85  
Sea Level Pressure  
Sea Level Pressure 30.22 in    
Wind  
Wind Speed 7 mph (SE)    
Max Wind Speed 15 mph    
Max Gust Speed 19 mph    
Visibility 10 miles    
Events      
T = Trace of Precipitation, MM = Missing Value Source: NWS Daily Summary

Daily Weather History Graph

Daily Weather History Graph

Search for Another Location

Airport or City:

Trip Planner

Search our weather history database for the weather conditions in past years. The results will help you decide how hot, cold, wet, or windy it might be!

Date:

Astronomy

Mar. 03, 2014 Rise Set
Actual Time 6:23 AM MST 5:56 PM MST
Civil Twilight 5:58 AM MST 6:21 PM MST
Nautical Twilight 5:30 AM MST 6:50 PM MST
Astronomical Twilight 5:01 AM MST 7:19 PM MST
Moon 7:43 AM MST (3/3) 8:50 PM MST (3/3)
Length of Visible Light 12h 22m
Length of Day
11h 32m
Waxing Crescent, 8% of the Moon is Illuminated
Mar 3
Waxing Crescent
Mar 8
First Quarter
Mar 16
Full
Mar 23
Last Quarter
Mar 30
New

Hourly Weather History & Observations

Time (MST) Temp. Windchill Dew Point Humidity Pressure Visibility Wind Dir Wind Speed Gust Speed Precip Events Conditions
12:51 AM 26.1 °F 16.2 °F 19.9 °F 78% 30.24 in 10.0 mi NNE 10.4 mph - N/A   Overcast
1:51 AM 25.0 °F 17.1 °F 19.9 °F 81% 30.26 in 10.0 mi East 6.9 mph - N/A   Overcast
2:51 AM 25.0 °F 20.7 °F 19.0 °F 78% 30.29 in 10.0 mi ESE 3.5 mph - N/A   Overcast
3:51 AM 25.0 °F 16.3 °F 19.0 °F 78% 30.28 in 10.0 mi East 8.1 mph - N/A   Overcast
4:51 AM 23.0 °F 17.0 °F 16.0 °F 74% 30.30 in 10.0 mi ENE 4.6 mph - N/A   Overcast
5:51 AM 23.0 °F 13.9 °F 16.0 °F 74% 30.31 in 10.0 mi NE 8.1 mph - N/A   Overcast
6:51 AM 21.9 °F 17.2 °F 15.1 °F 75% 30.33 in 10.0 mi SE 3.5 mph - N/A   Overcast
7:21 AM 23.0 °F 18.4 °F 15.1 °F 72% 30.28 in 10.0 mi East 3.5 mph - N/A   Scattered Clouds
7:34 AM 23.0 °F - 16.0 °F 74% 30.29 in 10.0 mi Calm Calm - N/A   Mostly Cloudy
7:51 AM 23.0 °F - 16.0 °F 74% 30.35 in 10.0 mi Calm Calm - N/A   Mostly Cloudy
8:51 AM 25.0 °F - 16.0 °F 69% 30.34 in 10.0 mi Calm Calm - N/A   Overcast
9:08 AM 27.0 °F - 17.1 °F 66% 30.29 in 10.0 mi Calm Calm - N/A   Mostly Cloudy
9:51 AM 28.0 °F 24.2 °F 21.0 °F 75% 30.32 in 10.0 mi SSE 3.5 mph - N/A   Overcast
10:17 AM 30.0 °F 26.5 °F 21.9 °F 72% 30.28 in 10.0 mi Variable 3.5 mph - N/A   Mostly Cloudy
10:30 AM 30.9 °F - 21.9 °F 69% 30.27 in 10.0 mi Calm Calm - N/A   Partly Cloudy
10:51 AM 34.0 °F 29.8 °F 21.9 °F 61% 30.28 in 10.0 mi Variable 4.6 mph - N/A   Clear
11:51 AM 35.1 °F 32.2 °F 21.9 °F 59% 30.25 in 10.0 mi Variable 3.5 mph - N/A   Clear
12:51 PM 37.0 °F 31.0 °F 23.0 °F 57% 30.20 in 10.0 mi SSE 8.1 mph - N/A   Clear
1:51 PM 39.9 °F 33.4 °F 24.1 °F 53% 30.15 in 10.0 mi SSE 10.4 mph - N/A   Clear
2:51 PM 41.0 °F 34.7 °F 25.0 °F 53% 30.13 in 10.0 mi SSE 10.4 mph - N/A   Clear
3:51 PM 43.0 °F 37.2 °F 25.0 °F 49% 30.11 in 10.0 mi SSE 10.4 mph - N/A   Clear
4:51 PM 43.0 °F 36.8 °F 26.1 °F 51% 30.11 in 10.0 mi SSE 11.5 mph - N/A   Clear
5:51 PM 42.1 °F 35.7 °F 25.0 °F 51% 30.11 in 10.0 mi SSE 11.5 mph - N/A   Clear
6:51 PM 39.0 °F 33.4 °F 24.1 °F 55% 30.13 in 10.0 mi South 8.1 mph - N/A   Clear
7:51 PM 36.0 °F 29.0 °F 23.0 °F 59% 30.13 in 10.0 mi South 9.2 mph - N/A   Clear
8:51 PM 35.1 °F 26.9 °F 24.1 °F 64% 30.12 in 10.0 mi South 11.5 mph - N/A   Clear
9:51 PM 35.1 °F 27.9 °F 23.0 °F 61% 30.12 in 10.0 mi South 9.2 mph - N/A   Clear
10:51 PM 32.0 °F 25.6 °F 21.9 °F 66% 30.10 in 10.0 mi SSE 6.9 mph - N/A   Clear
11:51 PM 27.0 °F 19.5 °F 19.9 °F 75% 30.09 in 10.0 mi South 6.9 mph - N/A   Clear